SL-14 DEB

Satellite information

Favourite Embed

Satellite Type and Status

DEBRISIN ORBIT

Key statistics

Satellite SL-14 DEB at a glance.

Uptime

13998

Days in orbit

Revolutions

≈ 14.0

Per day

Orbit

LEO

Low Earth Orbit

Inclination

82.6

Latest

Satellite identification and parameters

Extended collection of information and parameters for SL-14 DEB.

Object identification

Identified? True

Debris? True

Object name: SL-14 DEB

International designator: 1987-068BX

Object number (NORAD): 25444

Object ID (CCSDS): 25444

Country: COMMONWEALTH OF INDEPENDENT STATES (CIS)

Current information (Y/N): Y

RCS size: SMALL

Orbital parameters

Period: 103.091 minutes

Inclination: 82.5558 deg

SMA: 7282.968 km

Apoapsis: 917.171 km

Periapsis: 892.496 km

RAAN: 349.7417 deg

Eccentricy: 0.001694

Argument of periapsis: 209.0343 deg

Mean anomaly: 210.4536 deg

Mean motion: 13.96818962 rev/day

Mean motion (dot): 0.00000974 rev/day2

B* drag term: 0.00068958293 1/REarth

Two-line elements (TLE)

Creation date: Dec. 12, 2025, 10:14 a.m.

Reference frame: TEME

Reference center: EARTH

Epoch: Dec. 12, 2025, 7:22 a.m. UTC

TLE line 0: 0 SL-14 DEB

TLE line 1: 1 25444U 87068BX 25346.30698326 .00000974 00000-0 68958-3 0 9994

TLE line 2: 2 25444 82.5558 349.7417 0016940 209.0343 210.4536 13.96818962400200

Live tracking on map

Real-time ground track for satellite SL-14 DEB.

In-orbit conjunctions

A list of the most updated potential collisions computed for object SL-14 DEB.

Target Orbit TCA Probability of collision Miss distance Type
FENGYUN 1C DEB SSO 2024-12-23 09:43:36 0.0002721717 120.0 (m) DEBRIS
NOAA 17 DEB SSO 2024-09-04 12:12:19 0.000120263 180.0 (m) DEBRIS
CZ-4B DEB SSO 2024-07-07 21:50:25 0.0002128047 100.0 (m) DEBRIS

Associated space launch

Second generation soviet meteorological satellite

SL-14 DEB was lifted into orbit during the mission ‘Tsiklon-3 | Meteor-2 16’, on board a Tsiklon-3 space rocket.

The launch took place on Aug. 18, 1987, 2:27 a.m. from 32/1.

For more information about the launch, click the button.

Launch to space Tsiklon-3 | Meteor-2 16
Tsiklon-3 | Meteor-2 16

Agency: N/A

Status: Launch Successful

Launch date: Aug. 18, 1987, 2:27 a.m. UTC

Rocket: Tsiklon-3

Launch pad: 32/1

Location: Plesetsk Cosmodrome, Russian Federation

...

Latest news about this satellite

There are no fresh news available about this satellite. Check back as we update our databases every day.


Newsletter sign-up

Weekly statistics, charts and insights to help you stay on top of the space industry.